Miscellaneous Local Product
Issued by NWS Hastings, NE

Home | Current Version | Previous Version | Text Only | Print | Product List | Glossary Off
Versions: 1 2 3 4 5 6 7 8 9 10 11 12 13 14 15 16 17 18 19 20 21 22 23 24 25 26 27 28 29 30 31 32 33 34 35 36 37 38 39 40 41 42 43 44 45 46 47 48 49 50

000
AXUS43 KGID 040902
MISGRI

GID CWA HOURLY WEATHER ROUNDUP
NATIONAL WEATHER SERVICE HASTINGS NE
400 AM CDT MON MAY 04 2015

NOTE: "FAIR" INDICATES FEW OR NO CLOUDS BELOW 12,000 FEET WITH NO
SIGNIFICANT WEATHER AND/OR OBSTRUCTIONS TO VISIBILITY.

...SOUTH CENTRAL NEBRASKA...

CITY           SKY/WX    TMP DP  RH WIND       PRES   REMARKS
GRAND ISLAND   CLOUDY    61  39  44 NE15G26   29.97R
HASTINGS       LGT RAIN  58  48  69 NE8       29.99R
KEARNEY        CLOUDY    59  37  44 NE14      30.01R
ORD            CLOUDY    58  35  42 NE10      30.02R
YORK           CLOUDY    59  46  63 NE20G25   29.95R
AURORA         CLOUDY    61  44  53 NE20G26   29.96R
LEXINGTON      CLOUDY    58  39  48 NE9       30.04R
HOLDREGE       TSTM      55  43  63 N16       30.02R
HEBRON         CLOUDY    67  58  73 NE8       29.88R

...NEBRASKA PANHANDLE...

CITY           SKY/WX    TMP DP  RH WIND       PRES   REMARKS
CHADRON        LGT RAIN  51  38  60 E9        30.10R
ALLIANCE       CLOUDY    51  37  58 E3        30.10R
SCOTTSBLUFF    MOCLDY    51  40  65 SE7       30.10R
SIDNEY         MOCLDY    49  37  63 E7        30.10R

...WESTERN AND NORTH CENTRAL NEBRASKA...

CITY           SKY/WX    TMP DP  RH WIND       PRES   REMARKS
VALENTINE      PTCLDY    48  30  49 E5        30.10S
AINSWORTH      PTCLDY    47  32  56 NE7       30.09S
ONEILL         MOCLDY    51  37  57 N9        30.06F
BROKEN BOW     MOCLDY    57  36  45 NE15G23   30.04R
IMPERIAL       CLOUDY    50  38  63 NE8       30.05F
NORTH PLATTE   MOCLDY    54  38  54 CALM      30.08R
MCCOOK         CLOUDY    58  38  47 NE14      30.00F

...EASTERN NEBRASKA...

CITY           SKY/WX    TMP DP  RH WIND       PRES   REMARKS
NORFOLK        CLOUDY    60  31  33 NE16      30.01R
SO SIOUX CITY  LGT RAIN  59  36  42 N14       30.01R
TEKAMAH        CLOUDY    58  48  69 N16       29.95F
COLUMBUS       CLOUDY    59  43  55 N12       29.99S
ALBION         MOCLDY    59  33  37 N13       30.01R
OMAHA EPPLEY   CLOUDY    61  54  77 NE7       29.92F
MILLARD        CLOUDY    64  54  70 N3        29.93F
LINCOLN        CLOUDY    61  54  77 NE8       29.94S
NEBRASKA CITY  CLOUDY    58  53  83 CALM      29.92S
BEATRICE       CLOUDY    63  56  80 E12       29.90R
FALLS CITY     CLOUDY    65  55  70 SE13      29.90F

...NORTHERN KANSAS...

CITY           SKY/WX    TMP DP  RH WIND       PRES   REMARKS
GOODLAND       LGT RAIN  55  44  66 NE12      30.01F
HILL CITY      CLOUDY    61  46  57 N9        29.97F
NORTON         SUNNY     57  39  51 N18G28    29.95F
PHILLIPSBURG   CLEAR     64  43  45 N18G30    29.92F
SMITH CENTER   CLEAR     61  45  55 N14       29.94F
BELOIT         CLEAR     55  45  67 W6        29.88R
HAYS           MOCLDY    63  48  59 N10       29.94R
RUSSELL        MOCLDY    64  52  64 W14       29.89S
CONCORDIA      CLOUDY    66  53  63 W7        29.86R
SALINA         CLOUDY    64  56  75 S9        29.88R
TOPEKA         PTCLDY    67  54  63 SE6       29.91R



USA.gov is the U.S. government's official web portal to all federal, state and local government web resources and services.